sat.trackr.live / text

‹ back to catalog

ONEWEB-0521

NORAD 54139 · 2022-138AC

PAYLOAD ACTIVE UNKNOWN

§ Identity

Operator
Country
UK
Launch date
2022-10-22
Launch site
SRILR
Launch vehicle
Mass (kg)
RCS (m²)

Purposes: comms

External: N2YO · Heavens-Above · Gunter

§ Orbital elements

Epoch: 2026-05-25T04:34:21.611424Z

Period
109.11 min
Inclination
87.9160°
Eccentricity
0.0002070
Mean motion
13.19725398 rev/d
Perigee alt
1,184.2 km
Apogee alt
1,187.3 km
Semi-major
7,563.9 km
B*
2.0084e-5
RAAN
309.5373°
Arg perigee
94.0597°
Mean anomaly
266.0773°
Rev number
17,373

§ Raw data

ONEWEB-05211 54139U 22138AC  26145.19052791  .00000021  00000+0  20084-4 0  99902 54139  87.9160 309.5373 0002070  94.0597 266.0773 13.19725398173738

JSON: /api/v1/satellites/54139 · /tle

For live sub-satellite position, see the globe view (requires WebGL).

§ Visibility from observer

Set your observer location to see the next 7 days of passes ≥ 10°. The values pass through the URL so the page stays shareable.

No JS? Fill the form by hand. The geolocation button needs JavaScript.